This is the latest recevied weather packets stored in our database for station/object SR6WVX. If no packets are shown the sender has not sent any weather packets the latest 10 day(s).
| Time | Temp. | Humidity | Pressure | Rain* | Wind** | Luminosity | Snow |
|---|---|---|---|---|---|---|---|
| 1777450470 | 12.78° C | 28% | 1024.1 hPa | 0 mm | - | - | - |
| 1777450170 | 12.78° C | 29% | 1024.2 hPa | 0 mm | - | - | - |
| 1777449870 | 12.22° C | 29% | 1024.3 hPa | 0 mm | - | - | - |
| 1777449569 | 12.22° C | 30% | 1024.3 hPa | 0 mm | - | - | - |
| 1777449269 | 11.67° C | 31% | 1024.2 hPa | 0 mm | - | - | - |
| 1777448669 | 11.67° C | 31% | 1024.2 hPa | 0 mm | - | - | - |
| 1777448368 | 11.67° C | 33% | 1024.3 hPa | 0 mm | - | - | - |
| 1777448068 | 11.67° C | 32% | 1023.9 hPa | 0 mm | - | - | - |
| 1777447768 | 12.22° C | 31% | 1023.9 hPa | 0 mm | - | - | - |
| 1777447467 | 12.22° C | 33% | 1024 hPa | 0 mm | - | - | - |
| 1777447167 | 12.22° C | 35% | 1024 hPa | 0 mm | - | - | - |
| 1777446867 | 12.22° C | 34% | 1023.9 hPa | 0 mm | - | - | - |
| 1777446567 | 11.67° C | 35% | 1023.9 hPa | 0 mm | - | - | - |
| 1777446266 | 11.67° C | 36% | 1024 hPa | 0 mm | - | - | - |
| 1777445966 | 11.11° C | 37% | 1024.1 hPa | 0 mm | - | - | - |
| 1777445666 | 10.56° C | 37% | 1023.7 hPa | 0 mm | - | - | - |
| 1777445366 | 10.56° C | 37% | 1023.8 hPa | 0 mm | - | - | - |
| 1777444765 | 10° C | 38% | 1023.5 hPa | 0 mm | - | - | - |
| 1777444465 | 9.44° C | 39% | 1023.7 hPa | 0 mm | - | - | - |
| 1777444165 | 8.89° C | 41% | 1023.6 hPa | 0 mm | - | - | - |
| 1777443864 | 8.89° C | 40% | 1023.7 hPa | 0 mm | - | - | - |
| 1777443564 | 8.89° C | 40% | 1023.8 hPa | 0 mm | - | - | - |
| 1777443264 | 8.89° C | 41% | 1023.6 hPa | 0 mm | - | - | - |
| 1777442964 | 8.89° C | 45% | 1023.7 hPa | 0 mm | - | - | - |
| 1777442663 | 8.33° C | 45% | 1023.6 hPa | 0 mm | - | - | - |
* Rain latest hour (hover to see other rain measurements)
** Current wind speed in m/s (hover to see current wind gust speed)